Weather History for Hollywood, FL

Change the Weather History Date:

Sunday, January 6, 2013

  Actual Average (KFLL) Record (KFLL)
Temperature  
Mean Temperature 74 °F 69 °F  
Max Temperature 82 °F 76 °F 85 °F (1990)
Min Temperature 66 °F 61 °F 34 °F (1956)
Degree Days  
Heating Degree Days 0 2  
Month to date heating degree days 12  
Since 1 July heating degree days 44  
Cooling Degree Days 9 6  
Month to date cooling degree days 36  
Year to date cooling degree days 36  
Growing Degree Days 24 (Base 50)    
Moisture  
Dew Point 69 °F    
Average Humidity 82    
Maximum Humidity 97    
Minimum Humidity 67    
Precipitation  
Precipitation 0.09 in 0.08 in 1.00 in (1958)
Month to date precipitation 0.50  
Year to date precipitation 0.50  
Snow  
Snow 0.00 in - - ()
Month to date snowfall  
Since 1 July snowfall  
Snow Depth -    
Sea Level Pressure  
Sea Level Pressure 30.14 in    
Wind  
Wind Speed 6 mph (SE)    
Max Wind Speed 15 mph    
Max Gust Speed -    
Visibility 10 miles    
Events Rain    
T = Trace of Precipitation, MM = Missing Value Source: NWS Daily Summary

Daily Weather History Graph

Daily Weather History Graph

Search for Another Location

Airport:

Trip Planner

Search our weather history database for the weather conditions in past years. The results will help you decide how hot, cold, wet, or windy it might be!

Date:

Astronomy

Jan. 06, 2013 Rise Set
Actual Time 7:09 AM EST 5:44 PM EST
Civil Twilight 6:44 AM EST 6:09 PM EST
Nautical Twilight 6:15 AM EST 6:38 PM EST
Astronomical Twilight 5:47 AM EST 7:06 PM EST
Moon 1:34 AM EST (1/6) 1:00 PM EST (1/6)
Length of Visible Light 11h 25m
Length of Day
10h 35m
Waning Crescent, 33% of the Moon is Illuminated
Jan 6
Waning Crescent
Jan 11
New
Jan 18
First Quarter
Jan 26
Full
Feb 3
Last Quarter

Hourly Weather History & Observations

Time (EST) Temp. Heat Index Dew Point Humidity Pressure Visibility Wind Dir Wind Speed Gust Speed Precip Events Conditions
12:53 AM 66.9 °F - 66.0 °F 97% 30.20 in 10.0 mi Calm Calm - N/A   Unknown
1:53 AM 66.9 °F - 64.9 °F 93% 30.18 in 10.0 mi ENE 3.5 mph - N/A   Clear
2:53 AM 68.0 °F - 66.0 °F 93% 30.16 in 10.0 mi Calm Calm - 0.00 in Rain Light Rain
3:10 AM 71.6 °F - 68.0 °F 88% 30.16 in 10.0 mi SSE 5.8 mph - 0.08 in Rain Heavy Rain
3:17 AM 71.6 °F - 69.8 °F 94% 30.16 in 10.0 mi SE 4.6 mph - 0.08 in Rain Light Rain
3:53 AM 71.1 °F - 69.1 °F 93% 30.15 in 10.0 mi East 5.8 mph - 0.09 in   Overcast
5:53 AM 71.1 °F - 70.0 °F 96% 30.14 in 10.0 mi East 5.8 mph - 0.00 in   Overcast
6:53 AM 72.0 °F - 71.1 °F 97% 30.16 in 10.0 mi Calm Calm - N/A   Overcast
7:53 AM 73.0 °F - 71.1 °F 93% 30.17 in 10.0 mi SE 5.8 mph - N/A   Mostly Cloudy
8:53 AM 75.9 °F - 72.0 °F 87% 30.18 in 10.0 mi ESE 6.9 mph - N/A   Clear
9:40 AM 77.0 °F - 69.8 °F 78% 30.19 in 10.0 mi SE 11.5 mph - N/A   Mostly Cloudy
9:53 AM 78.1 °F - 70.0 °F 76% 30.19 in 10.0 mi SE 15.0 mph - N/A   Mostly Cloudy
10:05 AM 78.8 °F - 69.8 °F 74% 30.18 in 10.0 mi SE 13.8 mph - N/A   Scattered Clouds
10:53 AM 79.0 °F - 69.1 °F 72% 30.17 in 10.0 mi SE 15.0 mph - N/A   Mostly Cloudy
11:15 AM 78.8 °F - 68.0 °F 69% 30.16 in 10.0 mi ESE 12.7 mph - N/A   Mostly Cloudy
11:24 AM 78.8 °F - 69.8 °F 74% 30.16 in 10.0 mi ESE 11.5 mph - N/A   Mostly Cloudy
11:53 AM 78.1 °F - 69.1 °F 74% 30.15 in 10.0 mi ESE 12.7 mph - N/A   Mostly Cloudy
12:53 PM 82.0 °F 85.9 °F 70.0 °F 67% 30.12 in 10.0 mi SE 11.5 mph - N/A   Mostly Cloudy
1:53 PM 80.1 °F 82.9 °F 69.1 °F 69% 30.10 in 10.0 mi SE 12.7 mph - N/A   Mostly Cloudy
2:03 PM 80.6 °F 83.9 °F 69.8 °F 70% 30.10 in 10.0 mi SE 11.5 mph - N/A   Mostly Cloudy
2:26 PM 78.8 °F - 68.0 °F 69% 30.09 in 10.0 mi SSE 10.4 mph - N/A   Mostly Cloudy
2:53 PM 80.1 °F 82.9 °F 69.1 °F 69% 30.09 in 10.0 mi SE 13.8 mph - N/A   Scattered Clouds
3:53 PM 79.0 °F - 68.0 °F 69% 30.09 in 10.0 mi SE 11.5 mph - N/A   Partly Cloudy
4:53 PM 78.1 °F - 68.0 °F 71% 30.09 in 10.0 mi SE 11.5 mph - N/A   Partly Cloudy
5:53 PM 75.9 °F - 68.0 °F 76% 30.09 in 10.0 mi SE 8.1 mph - N/A   Clear
6:53 PM 75.0 °F - 68.0 °F 79% 30.11 in 10.0 mi SE 3.5 mph - N/A   Clear
7:53 PM 73.9 °F - 69.1 °F 85% 30.13 in 10.0 mi Calm Calm - N/A   Clear
8:53 PM 72.0 °F - 68.0 °F 87% 30.13 in 10.0 mi Calm Calm - N/A   Clear
9:53 PM 70.0 °F - 66.9 °F 90% 30.14 in 10.0 mi Calm Calm - N/A   Clear
10:53 PM 70.0 °F - 66.9 °F 90% 30.14 in 10.0 mi Calm Calm - N/A   Clear
11:53 PM 69.1 °F - 66.9 °F 93% 30.14 in 10.0 mi Calm Calm - N/A   Clear